GFSNW_850_spd_024.txt.gz
Wind_Speed
23 25 27 29 32 33 23 15 6 19 20 5 6 7 11 16 12 16 11 10 12 13 11 10 4 4 7 8 7 17 17 10 11 26 25 26 29 23 27 14 23 19 14 5
23 23 25 26 28 30 21 13 7 13 17 6 7 10 9 10 12 11 11 9 10 14 14 5 3 1 4 11 5 1 7 14 15 16 21 23 30 28 25 25 16 21 16 4
23 22 22 23 24 24 16 10 5 8 8 6 13 11 11 11 9 6 15 8 16 15 15 10 4 3 5 8 9 9 5 14 23 19 20 19 26 29 27 27 19 17 17 15
23 22 22 21 21 20 12 7 5 5 7 11 14 13 9 11 9 12 11 3 10 11 7 12 12 6 10 1 9 6 5 14 9 15 2 6 18 28 30 30 26 23 18 20
24 23 22 20 21 19 7 8 5 4 14 12 13 5 9 10 14 14 11 11 8 9 6 11 12 11 6 5 9 8 5 4 6 14 10 7 10 12 13 22 27 26 25 22
26 25 23 19 19 14 6 5 6 5 6 9 8 7 12 15 15 10 8 15 14 12 11 10 17 18 17 15 11 8 7 3 8 15 10 10 15 20 19 18 17 17 21 16
27 27 26 23 16 16 12 10 7 5 7 7 10 14 15 13 12 12 20 18 14 11 16 20 21 21 19 16 13 12 8 8 6 6 6 15 11 10 20 23 18 19 18 17
28 28 27 26 20 18 15 14 8 5 6 13 15 9 11 14 14 13 17 12 8 10 16 10 9 9 8 15 15 14 13 9 7 10 12 9 5 3 8 11 17 17 15 9
31 29 28 27 23 18 16 19 14 9 5 4 7 17 14 11 9 8 9 10 10 8 6 6 7 5 4 6 7 15 14 12 9 7 15 14 4 16 2 2 9 6 6 8
32 30 29 27 24 19 18 20 18 11 8 15 10 9 9 8 9 7 11 7 6 4 4 7 6 8 2 5 10 12 14 11 14 13 11 9 8 8 2 11 4 6 4 7
31 31 29 27 24 22 17 22 17 18 10 23 23 18 16 16 15 9 6 8 2 4 4 4 3 6 3 6 10 6 10 12 12 13 16 21 7 9 12 11 12 13 13 13
31 31 29 25 28 21 16 20 19 17 22 16 25 26 27 26 23 21 7 10 5 3 3 2 3 4 4 6 9 9 13 12 11 9 11 13 7 12 14 19 19 18 22 22
31 30 29 29 26 18 13 17 18 19 19 23 16 8 8 16 20 20 16 11 14 13 12 3 3 5 5 6 8 12 14 15 13 17 21 22 19 24 22 17 23 22 23 24
29 28 30 31 22 14 11 13 15 15 6 5 7 7 10 13 13 19 24 21 7 9 5 6 4 4 5 8 11 11 10 7 12 19 21 24 25 25 25 24 20 20 22 23
27 30 33 28 14 9 6 10 11 12 11 4 13 26 4 6 11 18 20 23 24 9 5 5 3 5 6 13 11 15 21 21 15 15 16 20 24 22 14 18 19 20 21 21
32 34 29 12 5 4 1 1 2 3 1 4 3 6 5 4 4 11 17 20 21 20 7 7 8 19 7 4 7 17 25 24 29 23 24 18 20 20 23 24 25 24 22 19
33 28 13 6 9 6 1 1 6 6 4 3 4 4 2 6 8 7 12 15 13 11 6 6 10 16 9 4 15 27 27 25 22 23 23 25 28 26 22 21 22 21 22 21
25 14 6 7 10 6 5 6 5 2 4 2 2 3 5 3 5 3 8 4 10 6 5 5 5 6 8 7 21 33 29 30 34 33 31 32 30 26 25 21 19 17 20 17
13 8 4 6 6 4 5 3 5 2 2 2 1 2 3 6 4 4 5 5 2 4 3 3 5 1 5 15 27 34 31 22 21 23 29 29 26 26 24 22 18 18 17 13
9 6 3 3 4 4 1 5 3 2 2 2 2 3 3 4 2 3 2 3 2 2 1 7 2 3 19 36 36 22 23 39 28 22 20 17 16 19 19 16 19 15 18 13
6 2 3 4 5 4 2 3 3 3 3 3 4 6 4 3 2 2 3 1 2 3 2 3 4 9 27 49 46 45 17 11 20 19 14 10 9 8 11 7 12 19 17 13
12 4 6 8 6 5 5 5 6 4 5 7 6 7 6 6 3 3 1 2 1 5 10 5 7 11 42 50 48 47 48 38 26 22 21 28 28 25 25 28 28 28 29 19
13 9 5 7 9 8 6 6 4 7 11 9 19 10 7 4 4 4 3 6 5 3 6 4 6 30 40 46 51 50 52 52 48 44 39 47 39 40 39 39 36 34 32 27
5 6 7 6 5 4 3 7 11 14 15 24 19 9 5 5 4 4 5 5 5 6 6 6 9 32 36 37 40 46 47 45 43 42 45 43 39 38 41 39 37 35 35 32
7 7 6 6 9 9 12 14 14 16 16 11 9 6 14 7 4 5 6 5 5 6 5 6 22 26 29 32 34 36 36 39 40 39 37 36 32 32 32 30 30 32 32 30
7 9 8 13 11 18 21 23 22 22 16 2 5 6 6 8 5 7 7 5 5 4 7 17 19 22 25 27 31 30 32 31 29 30 30 29 28 30 31 30 28 29 31 29
5 7 13 15 14 16 20 22 24 18 20 5 5 6 5 5 5 5 4 3 3 10 12 13 16 18 21 23 25 26 26 26 27 25 23 22 21 22 25 25 22 23 24 25

GFSNW_850_spd_027.txt.gz
Wind_Speed
25 28 29 29 31 33 25 15 7 18 18 17 6 8 9 11 15 16 15 21 21 17 11 17 17 17 10 13 13 18 35 13 21 31 28 27 26 29 27 17 24 17 12 1
25 27 29 29 29 29 27 17 15 5 16 7 10 14 15 11 12 11 11 10 18 20 18 9 16 15 10 12 14 6 9 17 16 22 25 28 31 30 24 26 18 21 15 7
25 25 26 29 27 27 18 12 5 14 13 10 10 11 16 14 6 7 14 8 12 19 19 17 11 11 13 9 10 17 10 17 23 19 25 24 29 29 30 24 19 17 19 15
25 25 25 26 26 25 13 7 7 7 7 11 13 15 13 13 8 10 16 3 7 9 8 17 10 10 16 8 6 10 7 15 20 26 18 20 28 29 30 30 24 24 15 19
26 26 26 24 24 22 9 9 8 10 16 12 14 15 9 13 13 17 15 9 15 9 11 13 15 14 11 6 15 11 10 12 19 23 24 5 14 26 32 30 27 24 23 14
27 27 27 25 21 17 10 8 10 9 12 11 10 10 14 12 11 13 10 15 13 15 8 16 20 17 22 17 15 13 11 9 12 17 22 11 16 20 20 24 27 22 22 19
28 28 29 26 21 16 18 17 14 7 9 10 11 14 17 14 13 15 21 19 15 18 16 20 23 23 21 18 15 14 12 12 9 12 18 20 14 19 14 14 14 16 12 10
30 31 29 27 23 16 18 21 14 6 7 13 17 9 12 17 17 16 18 14 11 15 18 14 11 12 14 17 14 15 13 11 7 10 16 7 17 14 21 22 20 14 14 13
31 31 30 27 23 18 20 20 16 15 6 8 10 20 15 10 12 14 11 10 13 10 8 9 12 6 5 14 13 15 15 12 11 8 13 18 4 10 2 3 12 20 18 15
30 30 29 27 24 19 19 23 18 17 9 21 21 9 12 14 12 8 14 13 14 9 5 8 10 9 8 6 15 15 12 13 14 13 8 10 5 12 13 12 6 17 5 4
29 29 29 26 24 18 18 21 17 18 12 27 30 25 22 17 14 9 11 11 5 6 3 5 3 7 2 9 12 8 12 15 13 14 16 17 5 7 5 8 11 16 13 11
28 28 27 25 21 20 16 20 17 17 21 15 19 24 29 28 21 16 9 13 16 5 4 3 5 9 4 9 9 9 9 9 10 13 15 4 11 14 5 4 9 9 12 12
27 27 26 24 25 17 14 17 16 17 17 22 23 8 8 11 16 16 11 10 13 15 14 8 5 5 10 6 11 12 12 16 12 14 17 14 18 14 12 13 15 14 16 18
26 25 27 28 20 15 10 13 12 12 4 4 8 7 8 6 9 14 18 20 11 9 8 9 5 5 11 10 11 14 13 13 15 19 19 23 25 22 20 24 20 22 20 18
26 29 27 15 8 6 1 7 8 8 9 4 11 18 6 3 7 17 15 18 18 15 4 4 7 10 10 13 14 16 20 18 14 14 17 17 22 26 27 26 23 22 21 24
29 26 10 4 6 4 1 1 3 4 2 4 3 8 4 6 2 3 8 15 18 18 6 7 9 19 8 5 10 20 24 26 29 24 32 32 26 22 21 28 19 22 25 29
26 11 5 8 6 5 2 3 5 8 4 3 4 6 4 7 8 6 8 11 7 5 3 4 4 4 5 4 14 34 35 38 36 27 18 27 28 19 23 21 20 24 29 30
13 5 7 8 7 6 6 6 5 1 0 2 2 3 6 7 5 0 4 2 4 4 4 4 4 4 7 5 19 38 44 41 40 35 31 30 25 25 24 24 25 22 22 25
8 6 6 3 5 3 4 4 7 4 2 1 1 3 3 8 4 3 2 2 2 3 2 2 3 1 3 16 39 51 53 46 40 31 25 19 24 26 31 30 30 26 26 23
10 7 1 3 5 8 3 4 3 5 3 2 2 2 3 3 2 3 1 4 1 2 2 2 2 3 19 40 43 28 21 9 21 20 14 15 18 24 26 28 27 23 23 19
8 4 6 2 8 5 2 2 6 5 2 2 4 5 3 3 2 2 1 0 0 3 4 5 5 10 28 51 49 46 25 11 7 12 15 16 21 21 23 20 18 16 10 13
6 4 1 1 5 4 4 6 6 5 5 11 11 11 3 3 3 4 5 2 3 6 4 6 7 13 45 46 47 52 51 42 34 11 6 14 27 23 26 23 32 30 28 30
9 5 4 5 6 7 5 5 4 6 11 12 24 8 4 1 3 5 4 7 5 3 5 4 7 29 39 42 40 45 45 44 48 46 43 45 39 39 43 36 43 42 36 37
4 5 6 5 5 5 3 6 9 14 13 19 18 16 1 4 3 5 5 5 5 7 6 5 11 30 32 34 36 38 39 46 43 41 42 46 45 43 38 38 44 47 44 41
5 6 4 4 6 6 11 14 17 20 18 13 9 8 11 6 4 5 6 5 5 6 6 7 21 24 26 30 32 34 35 35 34 35 37 39 39 39 38 37 38 37 34 34
5 6 9 11 14 15 17 17 20 22 23 6 8 5 5 6 4 6 6 2 2 2 7 14 18 22 24 26 27 29 28 29 29 30 29 28 30 30 31 33 33 32 31 33
4 8 11 13 15 15 18 19 21 17 19 7 5 5 4 3 4 4 2 2 2 5 4 8 13 19 23 24 23 24 24 25 24 23 23 22 21 23 26 26 26 26 27 30

GFSNW_850_spd_030.txt.gz
Wind_Speed
26 29 32 34 35 39 36 16 8 17 17 19 13 9 10 10 17 24 17 13 15 10 17 14 16 19 12 37 28 16 34 23 21 27 27 30 28 28 25 13 22 15 14 4
26 27 30 34 34 32 35 18 22 8 17 7 10 15 15 19 13 20 11 18 15 17 13 10 14 17 30 37 28 14 12 19 20 26 23 29 32 29 26 22 18 19 14 7
26 26 28 31 33 28 27 11 7 19 16 17 17 15 15 19 11 17 15 12 14 16 13 13 9 17 15 35 30 19 9 10 21 19 21 19 27 29 28 25 17 16 18 7
27 26 27 28 29 26 15 8 6 12 8 13 14 16 14 19 18 8 17 17 10 14 15 13 9 16 26 26 25 23 8 13 19 29 24 22 26 27 29 30 21 22 18 18
27 26 26 27 26 24 10 6 7 12 22 22 16 12 7 14 16 12 16 17 15 16 14 11 14 16 15 10 22 20 19 8 13 17 22 19 18 31 29 29 29 23 24 18
28 26 26 26 23 16 7 8 15 10 12 16 12 11 15 16 18 16 18 12 18 19 15 19 20 23 20 18 21 18 14 12 9 16 17 21 19 16 28 26 24 24 20 17
28 28 26 24 21 14 15 18 15 6 7 13 13 19 19 14 13 15 19 25 16 25 21 22 22 26 23 20 17 15 12 12 9 11 13 18 12 13 13 21 23 23 18 16
29 28 27 24 21 15 16 20 18 5 4 14 18 17 17 21 19 13 21 19 25 17 22 13 15 16 14 17 18 14 10 10 7 6 8 9 13 14 16 9 15 20 21 16
30 28 27 25 22 17 17 21 21 12 6 9 20 16 25 12 11 12 16 10 17 16 11 9 14 5 12 12 14 13 11 10 7 9 6 12 6 14 4 16 9 21 11 0
28 27 26 25 21 17 17 22 20 21 8 20 20 13 11 18 13 8 13 15 22 12 5 8 11 9 10 6 17 13 11 9 11 8 6 3 13 19 10 13 6 19 26 10
27 27 26 24 21 18 14 21 17 20 11 24 28 23 22 19 13 7 15 10 6 3 4 4 6 6 7 7 4 7 11 11 10 11 9 2 25 12 8 9 17 21 22 25
26 26 26 24 22 17 16 20 17 12 23 17 22 26 26 28 25 24 9 11 16 4 4 5 5 12 7 13 7 9 6 4 7 12 11 5 13 8 8 12 13 15 17 16
24 25 25 25 21 15 13 15 15 11 18 22 21 15 15 10 15 11 7 8 7 7 10 8 6 7 9 6 9 15 10 18 8 9 16 11 11 13 11 11 10 13 11 14
26 28 27 21 14 11 8 9 10 8 3 3 7 10 13 7 3 7 13 14 14 11 10 10 3 4 13 11 16 13 12 14 12 15 15 19 18 17 16 16 16 17 13 15
28 25 17 10 11 5 5 3 6 4 4 3 10 12 13 11 6 12 12 12 10 10 7 5 6 10 9 10 12 14 16 14 11 13 21 19 20 21 19 22 20 19 19 17
25 15 7 12 9 9 6 1 5 7 4 3 3 10 9 12 6 6 6 3 8 7 1 2 5 9 3 5 9 19 25 26 26 14 25 28 27 26 24 19 20 19 20 18
13 6 9 11 8 9 3 2 5 10 3 1 4 6 6 13 7 2 4 5 2 0 2 3 3 3 4 3 13 36 38 41 43 40 32 32 25 23 21 18 20 20 16 18
6 8 6 11 8 8 6 8 7 4 3 3 2 3 6 10 5 3 3 3 3 0 2 3 3 3 3 4 20 34 42 48 47 46 39 35 29 26 24 20 19 18 20 21
8 5 3 4 6 4 5 5 7 6 3 2 1 1 3 7 4 1 1 2 1 1 2 2 2 2 2 16 33 37 20 19 25 29 36 32 29 29 27 23 22 23 21 23
6 6 2 1 5 8 3 3 4 5 1 2 2 2 2 1 1 2 2 2 1 1 1 6 0 2 23 38 41 45 40 21 21 14 16 20 18 16 21 25 23 25 27 27
6 2 5 9 10 4 2 3 3 5 3 3 3 7 4 4 2 1 3 1 2 2 3 2 4 7 26 42 44 51 45 38 18 12 5 3 8 14 16 19 22 23 21 23
4 2 3 5 4 4 3 4 5 4 4 11 10 9 7 3 5 3 7 2 3 4 4 4 4 9 31 42 43 43 52 51 49 39 21 15 17 5 13 14 11 14 13 14
2 3 3 3 2 6 4 3 4 5 6 19 18 11 2 6 8 5 3 5 5 3 4 4 4 22 29 33 38 40 42 49 45 47 46 45 43 39 29 29 36 39 36 33
2 3 4 3 3 4 2 6 7 12 15 18 14 8 6 9 3 4 4 4 5 4 5 5 8 22 28 29 32 33 34 35 39 39 37 37 37 35 37 35 40 46 42 41
3 2 1 4 13 11 13 13 15 18 21 11 6 3 9 5 4 4 6 5 4 4 5 4 17 22 26 26 29 29 30 27 29 28 33 37 37 37 36 35 38 38 33 33
3 4 7 11 12 14 17 16 16 19 20 9 10 6 4 6 4 5 6 4 3 4 5 7 14 20 22 23 21 24 24 26 24 23 20 25 25 31 31 34 33 31 30 30
3 5 10 12 12 13 16 17 18 18 15 8 4 5 6 4 4 3 2 2 4 7 14 11 11 14 16 18 20 19 19 21 21 19 18 17 16 21 22 21 22 22 24 26

GFSNW_850_spd_033.txt.gz
Wind_Speed
27 27 30 34 36 40 39 16 6 10 17 11 8 6 11 17 15 20 13 13 12 10 13 7 14 12 10 32 27 23 16 8 17 27 16 25 16 16 18 11 14 6 5 10
28 27 28 31 32 32 35 18 9 16 23 5 8 13 15 17 10 11 13 7 12 15 5 5 8 9 14 20 25 17 15 5 9 18 13 16 30 23 16 9 5 13 5 6
28 27 27 28 30 26 24 9 5 12 19 22 16 13 14 13 13 8 12 9 15 11 10 4 7 14 11 23 29 40 27 10 11 11 16 8 25 22 21 13 13 16 8 7
27 26 26 26 27 23 12 6 5 10 5 10 16 18 15 12 12 10 8 9 11 13 11 9 7 13 18 20 27 17 11 7 12 14 14 13 17 25 22 23 13 17 12 7
27 26 26 25 24 20 8 5 4 6 14 19 16 12 11 18 17 14 11 12 9 13 13 3 13 16 9 5 16 17 17 7 16 5 11 14 18 26 23 21 19 10 14 8
29 27 26 24 20 13 5 6 7 7 6 10 11 9 14 18 17 12 19 15 14 10 14 20 24 19 19 14 13 17 15 10 10 5 5 6 3 14 24 18 18 16 13 8
28 27 25 23 18 11 12 13 13 4 4 6 11 21 24 16 19 15 22 22 6 16 22 35 25 22 19 17 14 4 20 18 4 5 5 2 7 4 11 18 9 19 14 11
28 27 25 23 19 13 14 16 17 6 3 8 16 17 18 21 23 16 22 16 15 25 18 15 11 7 10 13 14 11 16 11 4 4 2 3 4 12 11 4 11 23 11 4
28 26 25 23 19 13 14 16 18 14 3 6 10 21 19 13 6 8 17 23 23 17 4 3 3 3 5 6 6 14 15 10 2 4 4 2 12 26 32 8 11 20 20 19
28 25 23 22 18 13 14 18 18 14 6 14 8 3 6 9 10 5 14 20 8 15 4 3 3 4 6 4 9 9 6 3 4 4 3 6 18 24 19 7 3 17 25 24
25 23 22 21 17 12 10 17 16 16 10 22 23 12 15 10 10 4 16 11 8 3 7 4 3 3 4 3 3 7 0 3 2 1 4 4 34 22 14 6 19 22 27 31
23 23 24 24 18 10 9 16 14 10 20 10 24 29 14 15 19 22 8 8 17 2 4 4 3 5 3 10 6 12 5 3 2 6 2 14 13 19 22 23 20 25 24 27
25 26 25 20 12 7 6 9 11 8 13 17 12 8 18 5 10 6 6 5 6 9 14 7 4 3 6 5 1 6 8 9 3 7 12 15 11 8 22 22 19 20 22 21
26 23 17 10 9 3 2 3 4 4 3 2 5 11 15 5 4 4 7 13 10 11 12 6 2 3 13 4 7 9 7 12 10 9 9 17 16 24 28 30 22 13 15 16
23 13 9 11 8 9 8 4 5 5 2 2 9 6 11 13 10 10 5 8 9 11 7 2 2 6 5 6 5 4 10 10 7 7 23 9 21 29 29 28 26 21 25 15
11 8 11 10 10 8 4 2 4 8 4 1 2 6 11 16 5 9 10 7 9 4 4 5 9 9 8 3 3 4 28 34 36 29 30 33 30 29 25 21 20 19 19 20
7 9 11 11 11 9 3 2 7 7 2 2 1 3 5 9 8 9 10 8 5 3 3 3 4 5 4 3 4 24 44 43 42 34 32 31 27 17 17 21 17 20 16 12
7 6 11 12 10 8 8 8 8 5 3 3 1 2 1 7 5 3 6 3 4 3 2 1 1 3 1 3 14 35 39 35 32 33 33 40 34 22 20 18 17 19 16 13
6 2 3 4 5 4 9 7 5 5 2 2 2 1 2 3 2 2 2 3 1 2 0 2 0 1 1 13 25 32 37 21 22 25 20 26 28 20 17 18 19 20 18 17
7 5 5 2 6 13 7 2 2 2 0 2 3 3 1 3 2 2 3 1 1 1 1 4 0 2 20 33 30 39 40 33 29 17 9 8 9 13 16 15 15 16 17 17
6 4 2 8 11 5 3 2 3 2 3 6 2 5 4 4 2 2 6 2 2 1 2 1 3 4 15 29 32 46 45 46 47 38 26 18 11 8 12 13 12 16 15 16
6 3 3 7 4 2 2 3 7 1 3 4 7 5 7 5 5 4 7 3 4 4 4 4 4 6 25 27 30 31 40 47 44 47 42 43 39 15 7 10 9 2 4 6
6 3 2 2 3 3 3 2 5 3 5 12 8 4 4 6 8 7 3 2 3 5 3 4 2 19 24 25 26 27 28 36 45 43 39 43 46 38 31 25 20 16 19 22
3 3 5 1 3 3 4 6 5 15 19 22 11 4 2 1 3 3 4 3 5 4 4 2 4 18 23 22 24 28 28 21 30 33 38 36 35 38 36 35 31 36 35 32
3 1 1 4 12 15 17 17 17 20 24 19 12 5 10 3 4 4 5 4 4 3 3 4 12 18 21 23 21 23 26 24 16 21 27 28 31 30 31 30 30 33 31 32
3 1 5 10 11 13 15 15 17 23 25 17 9 4 3 4 3 4 4 3 2 3 1 8 7 12 15 18 20 19 18 22 20 10 17 18 22 24 24 25 30 31 30 30
4 4 9 8 9 10 14 15 18 19 19 7 5 5 5 4 3 2 1 1 3 9 8 3 13 11 9 13 16 19 16 18 18 14 13 11 13 17 21 23 21 22 22 22

GFSNW_850_spd_036.txt.gz
Wind_Speed
27 27 28 30 32 35 32 19 4 15 29 6 3 2 5 8 5 12 3 3 3 3 3 5 5 7 5 16 18 14 14 6 6 14 8 2 20 9 11 9 11 3 5 10
26 26 26 28 28 29 30 18 9 12 15 4 4 7 7 3 1 2 3 3 3 3 4 3 3 3 10 15 10 8 9 4 7 6 5 6 5 15 13 6 5 11 11 11
26 26 26 26 26 23 22 9 4 9 8 16 2 6 5 8 12 4 5 5 4 3 2 6 5 2 5 12 13 10 12 5 7 6 4 8 4 9 13 17 9 10 14 10
27 26 25 24 23 19 14 3 2 3 4 6 12 4 6 10 7 6 8 4 2 4 3 6 3 9 6 10 9 6 4 6 7 18 24 21 20 6 19 14 14 15 12 7
26 25 24 23 21 17 6 5 3 4 10 12 8 6 4 9 14 9 6 7 13 5 4 6 7 12 5 5 5 3 5 5 9 11 12 15 11 7 7 18 15 7 8 9
27 26 24 20 15 11 5 5 11 7 5 4 4 3 10 18 16 9 20 14 7 6 9 14 19 20 18 12 5 5 4 3 5 6 9 7 2 10 7 14 8 13 6 9
28 26 23 20 14 10 12 13 15 5 5 5 4 11 20 14 14 11 18 14 3 11 24 26 21 19 18 13 10 13 6 3 3 5 9 7 7 20 14 20 19 21 14 10
27 25 22 19 13 11 14 15 17 6 3 7 9 13 8 19 20 11 17 14 11 22 12 3 4 3 3 8 11 10 10 4 4 2 4 1 13 16 14 4 13 20 17 10
27 23 20 17 14 10 13 15 16 16 3 5 10 8 13 5 3 5 7 17 18 15 3 2 1 3 3 3 7 11 8 10 3 4 2 5 11 24 27 8 14 21 21 18
21 19 18 17 14 9 12 17 15 12 5 12 6 4 5 7 2 3 7 17 8 11 5 3 2 2 5 3 2 1 4 7 3 1 4 5 20 30 19 9 3 17 22 24
21 21 21 20 14 9 9 13 13 12 7 15 13 12 9 13 4 2 8 7 6 4 4 3 3 3 4 3 3 2 4 4 4 5 5 4 25 15 13 12 14 22 24 25
24 24 22 15 9 6 5 10 9 8 16 10 20 13 16 9 4 6 3 3 4 5 4 3 3 2 3 5 3 3 4 1 2 4 3 5 8 11 22 29 24 18 21 22
25 23 16 9 6 1 2 5 7 7 5 7 8 12 16 9 11 4 2 1 6 8 7 4 3 2 4 5 3 4 5 4 2 3 6 10 9 12 19 27 30 26 19 17
22 13 9 10 6 10 10 4 5 6 2 2 5 11 13 11 10 10 8 10 4 6 11 2 3 3 8 2 3 2 7 7 8 4 6 9 9 13 19 26 26 28 25 23
10 9 11 12 12 12 8 6 8 9 2 2 8 7 14 8 7 8 7 4 1 4 3 3 2 2 4 4 2 2 10 7 3 4 15 13 28 21 20 24 26 25 23 20
6 10 11 11 9 4 2 2 3 8 2 1 3 6 12 10 14 17 16 12 8 4 4 4 4 7 9 2 1 4 29 32 30 17 17 21 33 34 31 27 23 16 20 11
6 12 10 10 10 9 4 3 6 3 2 1 4 7 7 7 8 11 13 17 10 6 4 4 4 5 7 2 3 27 33 30 22 18 21 18 19 20 16 12 15 9 13 13
2 5 8 10 8 7 7 10 9 3 3 2 1 3 6 9 7 6 11 9 10 12 6 6 5 6 3 1 16 27 35 30 17 25 21 25 27 29 23 17 16 12 13 12
7 4 4 4 5 5 9 8 6 4 1 2 2 1 3 3 3 5 6 7 3 6 3 4 5 3 4 12 25 33 36 32 30 28 21 25 17 13 21 19 26 16 11 9
9 5 2 3 5 11 6 2 2 1 1 2 5 4 2 4 2 2 2 2 2 3 3 2 3 2 16 18 22 27 35 37 37 29 28 25 13 6 10 13 13 12 9 7
6 6 3 8 9 3 2 2 2 1 2 5 5 7 2 6 2 2 4 2 1 2 2 2 3 4 16 21 21 22 32 36 34 35 34 35 23 7 1 4 2 7 8 8
6 7 9 6 3 2 1 3 6 0 3 4 5 4 7 6 5 3 4 1 1 2 6 3 3 4 19 21 20 22 22 29 31 35 35 42 42 35 26 17 11 6 6 7
5 2 2 2 1 5 3 4 5 4 5 9 14 3 4 6 6 3 3 3 1 6 4 1 3 12 15 18 21 20 14 21 28 32 35 34 37 42 39 33 27 25 21 16
2 3 5 1 5 3 2 3 3 16 21 28 23 5 5 4 3 0 4 2 5 3 3 1 3 10 14 16 18 19 15 11 19 26 28 30 33 32 30 32 31 30 30 28
3 2 0 1 4 11 13 15 19 23 24 21 4 5 7 5 5 3 3 4 3 2 3 3 5 10 10 14 15 17 16 10 9 15 18 23 26 30 31 33 33 28 24 27
3 2 2 2 5 7 9 13 19 19 20 10 8 5 4 5 3 4 2 2 1 2 5 6 2 4 7 11 14 17 15 13 8 7 11 14 17 21 23 23 24 25 30 32
3 2 5 6 1 2 5 9 14 17 15 4 6 4 1 2 3 1 4 3 3 5 10 5 2 4 5 8 12 15 15 12 8 8 7 7 9 13 15 16 16 19 16 23

GFSNW_850_spd_042.txt.gz
Wind_Speed
25 26 26 28 30 30 29 13 3 14 13 6 4 2 5 7 2 2 3 4 6 6 6 3 5 7 5 12 9 3 2 4 7 9 18 9 7 6 10 12 17 3 4 9
25 26 26 26 25 26 26 18 6 12 11 4 4 6 5 4 3 3 2 3 6 4 5 2 5 4 7 14 7 6 7 4 6 7 10 4 5 8 9 3 6 19 15 6
25 26 25 24 22 19 18 8 4 7 11 7 3 5 4 5 7 2 6 4 1 2 1 3 3 4 6 14 9 7 7 6 9 7 4 6 7 12 7 3 8 11 17 10
26 26 24 22 19 15 12 6 2 3 4 4 3 4 4 7 5 5 8 3 4 4 3 2 4 5 3 8 10 6 3 7 12 21 21 17 17 16 14 5 7 11 8 17
26 26 23 18 14 12 6 4 3 2 5 5 6 2 2 5 6 2 5 7 8 7 4 6 8 6 5 7 7 7 5 5 6 11 17 18 19 17 17 14 8 8 6 6
27 24 20 14 10 8 4 2 4 2 3 2 3 1 4 7 11 8 20 9 6 8 14 17 20 20 18 11 9 12 6 3 3 6 5 10 8 11 5 7 10 2 8 2
23 21 17 13 7 8 6 7 6 1 3 3 3 6 17 14 14 8 13 16 8 7 15 27 20 24 24 20 15 17 7 5 3 6 4 10 6 4 14 17 15 14 9 13
21 19 16 13 7 7 8 9 5 3 2 5 10 10 10 14 17 8 6 10 14 19 10 3 5 2 4 9 16 16 10 4 4 3 4 9 3 6 5 5 10 18 15 14
21 20 17 12 7 6 6 8 6 7 3 2 9 8 10 4 4 4 5 17 14 6 2 3 3 2 1 3 3 9 6 7 3 2 6 5 4 11 12 6 5 19 20 15
22 19 14 8 5 4 4 5 3 5 4 7 8 3 4 4 3 3 7 14 8 6 3 2 2 2 3 4 3 5 4 4 13 11 5 3 12 14 9 4 2 19 22 17
21 15 9 6 3 2 2 3 4 5 4 10 8 14 9 9 3 2 8 7 3 4 3 3 3 2 5 3 3 1 1 3 1 3 4 4 24 5 7 2 9 14 23 25
14 13 10 5 4 5 4 4 3 3 9 6 10 9 13 7 10 5 4 4 5 3 3 3 3 3 4 7 2 6 3 3 2 4 4 11 13 17 13 11 7 19 23 26
13 14 10 9 9 8 6 4 3 1 3 6 9 13 10 10 12 6 3 4 6 7 8 4 3 3 4 4 5 4 5 12 3 4 7 11 8 7 19 13 14 19 24 26
11 12 9 8 12 7 5 5 5 3 2 2 4 12 13 15 11 7 8 8 8 11 7 4 2 3 9 4 4 4 5 9 7 3 4 13 5 27 25 23 17 16 18 23
10 10 9 5 5 5 4 5 9 9 2 2 4 7 12 13 15 10 9 10 6 8 6 4 4 4 5 4 3 2 11 3 2 1 13 7 14 25 24 26 21 17 16 16
11 10 8 7 5 4 2 3 3 10 7 2 2 1 0 4 8 9 12 12 13 7 4 4 5 6 8 3 3 21 26 25 22 10 22 18 19 19 20 22 21 18 15 13
8 6 7 8 8 6 3 3 7 6 4 2 4 6 4 2 2 2 4 11 8 7 3 5 3 3 6 2 3 20 27 24 23 24 21 12 10 14 22 21 22 21 18 15
8 8 7 6 10 8 4 8 7 4 2 2 2 3 0 1 1 1 2 2 4 8 4 5 5 5 5 3 13 19 22 21 25 30 25 21 18 15 14 14 13 15 18 15
8 8 8 7 4 5 9 11 7 6 3 2 1 2 2 1 1 2 2 2 3 2 3 5 5 3 4 7 14 16 21 21 23 25 29 27 28 17 16 13 9 7 13 15
9 5 3 3 6 14 10 4 3 2 2 3 4 2 2 1 1 2 2 2 2 2 1 2 3 3 8 16 13 12 15 17 20 21 25 26 26 26 24 25 14 7 6 7
7 4 3 9 11 5 3 3 2 1 3 4 4 4 2 2 1 1 2 2 2 2 1 1 2 3 6 15 13 7 12 15 20 20 19 19 19 20 21 21 17 16 14 8
8 7 8 5 4 2 2 3 4 0 3 3 2 2 3 2 1 1 1 1 2 2 2 3 1 3 11 14 13 2 6 10 14 19 22 22 20 20 21 22 20 18 14 11
5 2 2 2 2 5 3 4 5 3 5 5 5 3 2 2 2 3 1 2 1 4 3 1 4 7 10 12 13 7 1 5 10 12 15 19 24 26 29 32 25 20 17 15
2 2 5 2 4 2 4 4 4 9 10 17 12 2 0 1 1 1 3 0 3 2 2 3 3 7 8 11 12 11 5 1 5 9 13 15 17 19 25 27 29 31 26 17
2 2 2 4 4 6 8 10 10 11 14 10 1 3 1 3 3 3 2 3 2 2 4 3 4 5 7 10 11 12 9 2 1 4 8 12 15 16 16 16 19 23 27 27
3 4 2 5 3 7 6 8 11 11 13 3 4 3 3 3 1 2 0 2 3 3 4 7 13 5 5 9 11 13 7 5 1 2 3 6 8 10 12 14 12 8 15 22
4 6 9 11 9 7 9 9 10 9 5 2 3 3 1 0 2 2 3 4 3 4 8 10 5 5 9 9 7 9 4 6 2 3 5 7 8 10 12 10 9 12 6 8

GFSNW_850_spd_045.txt.gz
Wind_Speed
23 25 27 28 29 29 26 11 1 17 9 5 4 2 6 6 4 1 3 3 7 8 7 6 6 8 5 12 10 4 4 3 5 13 17 22 17 11 22 14 23 19 16 13
24 25 26 27 25 24 25 9 6 12 9 3 4 5 4 4 4 4 3 3 5 5 8 4 8 6 8 13 9 6 7 3 5 11 11 18 11 17 17 24 21 23 17 14
24 25 25 23 22 18 16 6 3 7 13 7 3 5 4 6 7 2 4 4 2 3 6 5 2 6 9 14 9 8 7 4 7 12 17 11 10 12 16 20 21 21 21 21
25 24 22 19 17 13 10 7 3 4 4 6 6 6 5 7 6 7 8 4 7 6 6 5 8 7 6 12 13 9 7 7 8 14 20 24 26 26 26 20 23 22 22 22
23 21 18 15 13 12 9 4 3 3 2 3 5 1 2 6 6 2 5 9 11 9 7 10 7 7 8 11 12 11 8 6 9 18 23 23 28 29 26 23 24 19 17 15
20 18 16 12 10 9 5 3 1 0 2 3 3 3 4 8 14 8 15 11 1 5 10 17 21 17 17 14 9 12 9 5 7 21 17 17 22 30 25 21 17 21 22 15
20 18 15 10 7 5 4 3 3 0 2 2 4 8 14 11 11 7 12 13 5 6 7 11 21 25 25 25 23 19 9 11 7 14 15 11 9 8 26 12 7 2 8 3
21 18 14 7 6 4 4 4 1 1 2 4 7 11 8 13 10 8 9 7 9 16 11 4 6 4 6 15 23 21 18 8 6 5 7 12 11 5 23 16 8 10 6 5
21 16 10 6 4 4 2 3 1 3 2 1 6 5 9 4 5 6 3 11 9 3 3 3 4 4 4 2 2 19 18 13 7 4 7 5 5 4 6 8 6 12 10 11
17 12 6 4 3 5 5 4 1 2 3 4 7 2 5 6 4 4 7 13 5 2 2 3 3 2 2 4 8 8 9 5 13 13 8 9 11 11 8 6 4 9 10 13
13 11 9 5 5 6 6 4 3 1 3 7 6 9 6 6 4 2 8 5 1 3 3 3 3 3 3 2 3 6 6 6 7 8 6 9 23 5 4 6 8 6 12 18
12 11 10 7 10 7 5 3 1 2 5 3 7 6 6 6 9 7 4 4 5 3 3 2 3 2 3 7 4 3 2 3 2 2 1 16 8 19 14 10 9 13 16 19
9 9 9 6 11 8 6 4 3 4 3 5 5 6 7 9 4 3 2 4 6 4 7 4 2 3 3 4 3 3 2 6 2 3 4 13 10 16 16 14 12 12 15 19
7 8 7 6 5 6 6 6 7 5 1 2 3 10 7 11 8 4 4 7 6 5 4 3 2 3 9 4 3 3 5 8 6 4 8 17 17 20 20 18 14 14 13 16
6 5 7 4 4 5 1 3 5 5 0 2 3 5 5 8 12 10 10 9 5 3 3 4 4 4 5 5 4 4 13 6 5 3 17 9 13 24 18 19 18 15 16 14
6 5 3 3 3 6 4 3 2 7 4 3 2 4 2 7 10 10 10 11 12 7 4 3 5 5 9 3 3 21 25 25 23 9 23 12 16 15 17 17 18 16 13 15
7 6 5 5 6 5 3 3 7 8 4 2 4 3 3 3 7 7 6 10 9 6 3 6 5 4 8 2 3 21 25 24 24 29 27 20 24 19 19 18 16 14 11 10
8 7 7 7 8 6 3 6 8 5 3 2 2 2 1 0 1 3 6 5 6 9 3 4 5 7 5 3 18 17 24 21 24 28 29 25 19 20 26 21 18 13 10 12
9 8 8 5 2 3 6 9 5 5 3 2 1 2 3 1 0 1 3 4 3 5 4 4 4 3 4 7 13 18 18 18 21 22 22 23 24 23 26 23 22 19 15 14
9 6 2 2 4 11 5 2 2 1 2 3 3 2 1 2 4 2 3 1 1 2 3 4 4 2 4 9 10 8 14 16 20 23 25 23 24 25 25 24 22 20 14 10
6 3 3 7 9 2 1 1 1 0 3 4 4 5 3 2 2 2 1 2 1 1 1 3 3 2 4 11 12 8 11 12 16 18 20 23 22 22 22 24 23 22 21 21
8 7 7 4 3 2 1 1 1 2 2 3 2 1 3 2 2 2 3 2 2 2 3 1 1 3 4 10 12 7 6 9 10 14 17 19 22 23 25 25 25 23 22 21
7 2 2 2 1 3 2 3 3 3 4 2 2 4 2 2 3 1 2 2 3 4 1 1 2 4 3 7 10 10 6 4 7 11 14 15 16 22 26 24 22 23 26 21
2 1 5 1 2 3 3 3 4 6 8 10 7 2 2 3 3 1 1 2 3 2 1 1 1 1 2 4 6 8 8 4 4 5 10 12 15 16 16 19 20 21 23 24
2 1 2 4 5 7 8 9 8 9 9 7 1 2 3 2 2 1 2 3 1 1 1 1 2 7 4 4 6 7 7 4 5 3 6 9 11 15 17 18 16 15 19 19
3 4 4 5 4 5 4 6 8 7 8 3 2 1 1 2 1 1 2 1 1 1 2 3 8 4 3 6 7 7 5 4 3 3 4 6 9 11 13 13 15 14 12 16
3 5 9 12 13 10 9 8 8 7 3 2 3 3 2 1 2 1 2 2 1 2 2 4 2 3 6 8 7 4 4 5 3 4 5 6 5 9 9 8 9 14 14 13

GFSNW_850_spd_048.txt.gz
Wind_Speed
25 26 26 26 25 23 21 6 1 14 6 2 2 3 5 5 5 4 7 6 12 12 10 11 11 9 5 8 7 3 1 4 8 12 10 11 11 15 18 17 24 20 19 10
25 24 24 22 21 21 16 6 4 11 7 2 5 6 4 3 7 5 6 7 5 8 11 7 9 6 3 10 9 3 4 4 6 8 17 16 12 20 15 16 21 23 20 19
23 22 20 19 18 17 9 4 1 6 15 14 8 5 8 6 3 6 6 9 10 12 12 12 6 8 6 11 13 5 3 11 12 12 14 11 10 12 14 17 17 20 23 21
22 20 19 18 16 13 9 7 5 5 4 8 6 3 3 4 6 5 8 5 8 9 7 14 16 12 11 13 14 13 8 10 14 17 16 16 18 19 19 20 18 22 21 24
21 19 18 16 14 11 9 4 3 4 5 4 5 5 5 7 5 2 6 8 10 7 7 14 7 10 15 15 15 17 15 13 13 17 16 18 23 23 26 25 25 25 24 29
20 18 15 13 12 11 5 6 5 3 0 1 3 3 2 5 11 4 11 14 9 8 12 17 22 23 19 15 13 17 15 10 12 18 18 20 23 21 27 30 27 27 25 25
20 16 12 9 9 8 7 6 5 1 3 3 4 7 9 9 9 8 12 8 5 4 12 14 17 23 23 26 21 22 14 14 11 14 16 19 22 25 27 31 30 28 26 27
18 13 9 6 8 5 6 5 5 1 1 4 4 9 8 10 8 8 6 6 9 15 17 6 7 11 12 23 25 23 20 12 7 10 12 17 27 24 22 30 30 24 30 30
15 12 9 7 6 6 6 5 4 1 1 1 5 6 8 4 8 7 3 8 10 7 3 3 4 3 3 3 5 19 23 19 11 10 10 15 8 18 40 36 18 18 14 17
13 12 11 8 7 8 8 3 3 1 2 3 4 3 3 4 4 4 9 12 4 2 1 3 3 3 1 3 4 5 14 15 15 15 13 13 14 20 33 9 10 14 6 6
10 10 10 7 8 6 7 3 4 3 2 5 3 3 5 6 5 3 9 7 2 2 2 2 2 3 2 3 2 3 7 6 7 9 9 15 8 17 6 4 13 9 4 10
9 7 8 5 8 6 5 1 2 2 1 3 4 4 6 7 6 7 6 5 5 3 3 2 3 2 3 7 2 1 2 4 2 5 4 4 17 25 16 10 6 4 10 14
8 4 5 6 7 5 4 3 1 2 3 4 3 4 2 4 5 5 5 3 7 2 5 3 2 2 3 4 3 3 2 8 4 3 6 11 12 15 17 5 5 8 11 15
6 5 2 4 3 3 4 4 2 1 3 5 5 4 3 4 5 5 6 12 7 6 3 4 2 3 7 3 3 2 3 8 6 5 6 16 8 17 15 12 10 11 11 15
6 4 3 1 1 2 4 7 4 4 1 5 4 1 3 2 3 7 9 7 6 3 1 2 2 4 4 4 4 2 12 5 4 2 16 6 13 18 16 10 14 13 14 16
6 5 3 3 4 5 3 3 3 7 3 4 3 3 6 5 6 8 7 5 4 5 3 2 3 4 6 3 3 17 23 20 23 13 22 16 22 19 20 19 17 12 15 15
7 7 6 6 6 5 3 3 4 9 5 3 5 3 3 5 7 6 4 5 4 4 2 7 4 5 5 3 5 23 25 23 25 27 25 22 25 25 28 20 15 13 15 15
8 8 7 7 8 7 3 6 10 7 3 3 3 2 4 1 2 3 3 5 2 4 3 5 9 3 6 3 19 21 24 22 25 24 23 22 23 29 30 28 22 24 25 19
10 8 6 7 3 2 6 11 6 3 5 3 2 3 4 2 1 1 2 3 1 0 2 3 5 3 3 9 15 17 20 23 23 23 23 25 25 26 28 28 30 27 24 22
9 4 0 3 4 8 5 2 1 2 2 3 4 2 2 3 3 1 1 2 1 1 2 1 2 2 4 9 12 12 14 17 20 24 28 30 31 29 28 25 25 24 23 22
5 2 3 7 8 1 1 2 4 3 3 5 4 5 6 2 3 1 2 1 1 1 1 2 1 3 6 8 8 8 10 12 15 17 19 20 21 25 27 26 25 23 20 20
6 7 8 4 1 3 4 1 2 3 3 2 7 7 4 2 1 2 2 2 2 2 1 1 2 3 6 7 8 8 5 7 9 11 14 16 19 20 20 22 24 23 21 17
7 1 2 3 3 2 1 2 4 4 7 6 8 6 1 2 3 2 3 4 1 2 2 2 3 4 4 6 7 8 7 4 4 7 10 13 14 15 18 19 21 23 22 23
2 3 3 3 2 3 4 7 7 10 8 11 9 2 4 5 5 3 3 2 3 2 1 3 1 3 2 4 7 8 9 6 5 5 7 10 13 15 17 17 17 19 23 24
3 3 3 3 5 9 6 7 7 6 6 8 6 5 4 4 3 2 0 3 1 2 2 4 9 6 3 2 5 8 10 9 7 6 7 9 11 14 14 15 15 15 16 19
3 5 6 6 9 12 10 7 10 4 5 4 1 3 2 4 2 3 4 4 3 3 4 8 6 4 3 4 5 5 6 8 8 7 7 8 9 11 11 11 13 14 13 14
4 5 7 11 12 12 13 12 12 6 7 3 4 4 2 5 4 4 1 2 6 8 7 5 2 2 3 5 5 4 2 5 4 5 6 8 6 8 10 11 11 13 12 11